sat.trackr.live / text

‹ back to catalog

QIANFAN-134

NORAD 69080 · 2026-104H

PAYLOAD ACTIVE UNKNOWN

§ Identity

Operator
Country
PRC
Launch date
2026-05-12
Launch site
TAISC
Launch vehicle
Mass (kg)
RCS (m²)

External: N2YO · Heavens-Above · Gunter

§ Orbital elements

Epoch: 2026-09-20T04:52:28.267680Z

Period
106.59 min
Inclination
88.9908°
Eccentricity
0.0002218
Mean motion
13.51029210 rev/d
Perigee alt
1,066.8 km
Apogee alt
1,070.1 km
Semi-major
7,446.6 km
B*
6.9019e-5
RAAN
331.8021°
Arg perigee
111.9872°
Mean anomaly
248.1515°
Rev number
1,797

§ Raw data

QIANFAN-1341 69080U 26104H   26263.20310495  .00000057  00000+0  69019-4 0  99992 69080  88.9908 331.8021 0002218 111.9872 248.1515 13.51029210 17971

JSON: /api/v1/satellites/69080 · /tle

For live sub-satellite position, see the globe view (requires WebGL).

§ Visibility from observer

Set your observer location to see the next 7 days of passes ≥ 10°. The values pass through the URL so the page stays shareable.

No JS? Fill the form by hand. The geolocation button needs JavaScript.